Location: Gouy
(50.0008°N, 3.2556°E)
Time: 13:43:39
(UTC+00:00)

SL-14 R/B - Pass Details

Date: 23 May 2024
Orbit: 508 x 541 km, 82.4° (Epoch: 18 June)

Event Time Altitude Azimuth Distance (km) Brightness Sun altitude
Exits shadow 01:01:33 32° 240° (WSW) 923 4.0 -17.3°
Maximum altitude 01:02:47 42° 285° (WNW) 752 3.9 -17.2°
Drops below altitude 10° 01:06:29 10° 358° (N) 1,759 7.0 -17.0°
Sets 01:08:42 0° 5° (N) 2,647 8.3 -16.9°
